FW6908 Weather Reports


time (UTC)temp
F
wind
direction
speed
knots
gust
knots
rain 1hr
in
rain 24hr
in
rain mn
in
humidity
%
barometer
mb
20260904095539 87 33 13.0 22.6 0.00 0.00 0.00 44 1016.1
20260904095039 87 16 12.2 22.6 0.00 0.00 0.00 44 1016.1
20260904094549 87 31 12.2 24.3 0.00 0.00 0.00 45 1016.0
20260904094036 86 11 16.5 24.3 0.00 0.00 0.00 46 1016.0
20260904093538 87 17 13.0 20.0 0.00 0.00 0.00 46 1016.1
20260904093035 87 28 13.0 20.0 0.00 0.00 0.00 47 1016.1
20260904092535 86 39 12.2 20.9 0.00 0.00 0.00 48 1016.0
20260904092035 87 11 11.3 22.6 0.00 0.00 0.00 48 1015.8
20260904091535 87 19 11.3 23.5 0.00 0.00 0.00 48 1015.9
20260904091033 86 351 10.4 23.5 0.00 0.00 0.00 49 1015.9
20260904090530 86 355 15.6 21.7 0.00 0.00 0.00 49 1015.9
20260904090033 87 34 10.4 18.2 0.00 0.00 0.00 48 1016.0
20260904085529 87 11 6.1 18.2 0.00 0.00 0.00 49 1015.9
20260904085027 86 42 13.0 19.1 0.00 0.00 0.00 49 1016.0
20260904084530 85 19 10.4 21.7 0.00 0.00 0.00 50 1016.0
20260904084025 85 9 13.9 21.7 0.00 0.00 0.00 50 1016.0
20260904083531 85 5 14.8 24.3 0.00 0.00 0.00 50 1016.0
20260904083036 85 20 14.8 24.3 0.00 0.00 0.00 50 1016.1
20260904082523 85 30 8.7 20.0 0.00 0.00 0.00 50 1016.0
20260904082023 85 34 9.6 20.0 0.00 0.00 0.00 51 1015.8
20260904081522 84 72 10.4 23.5 0.00 0.00 0.00 51 1015.9
20260904081025 85 40 12.2 23.5 0.00 0.00 0.00 49 1015.9
20260904080524 86 17 13.0 20.0 0.00 0.00 0.00 48 1015.8
20260904080024 85 349 6.1 15.6 0.00 0.00 0.00 50 1015.7
20260904075519 85 86 9.6 19.1 0.00 0.00 0.00 50 1015.8
20260904075018 85 79 9.6 19.1 0.00 0.00 0.00 50 1015.7
20260904074516 85 75 9.6 16.5 0.00 0.00 0.00 51 1015.7
20260904074014 85 61 10.4 16.5 0.00 0.00 0.00 51 1015.6
20260904073513 84 26 7.8 16.5 0.00 0.00 0.00 52 1015.5
20260904073012 84 13 9.6 15.6 0.00 0.00 0.00 51 1015.5
20260904072510 84 47 7.0 15.6 0.00 0.00 0.00 50 1015.5
20260904072013 84 46 8.7 20.0 0.00 0.00 0.00 51 1015.5
20260904071510 84 30 7.8 20.0 0.00 0.00 0.00 50 1015.4
20260904071007 84 9 10.4 20.9 0.00 0.00 0.00 50 1015.5
20260904070509 84 24 10.4 20.9 0.00 0.00 0.00 50 1015.4
20260904070004 84 46 7.0 19.1 0.00 0.00 0.00 49 1015.4
20260904065503 84 22 11.3 19.1 0.00 0.00 0.00 49 1015.3
20260904065001 84 55 9.6 19.1 0.00 0.00 0.00 49 1015.2
20260904064604 84 24 11.3 20.0 0.00 0.00 0.00 48 1015.0
20260904064100 84 11 13.0 20.0 0.00 0.00 0.00 48 1015.0
20260904063556 84 13 10.4 18.2 0.00 0.00 0.00 48 1014.9
20260904063105 84 20 10.4 18.2 0.00 0.00 0.00 49 1014.8
20260904062553 84 360 8.7 18.2 0.00 0.00 0.00 49 1014.8
20260904062051 83 82 7.8 18.2 0.00 0.00 0.00 49 1014.8
20260904061550 83 34 7.8 15.6 0.00 0.00 0.00 49 1014.8
20260904061050 83 38 10.4 15.6 0.00 0.00 0.00 50 1014.8
20260904060548 83 355 6.1 11.3 0.00 0.00 0.00 50 1014.9
20260904060100 83 184 0.9 9.6 0.00 0.00 0.00 49 1014.9
20260904055545 83 13 1.7 9.6 0.00 0.00 0.00 49 1015.0
20260904055044 83 11 4.3 14.8 0.00 0.00 0.00 50 1015.0
20260904054555 82 355 5.2 14.8 0.00 0.00 0.00 51 1015.1
20260904054040 81 270 1.7 4.3 0.00 0.00 0.00 54 1015.0
20260904053539 80 273 1.7 4.3 0.00 0.00 0.00 55 1015.0
20260904053044 80 198 1.7 3.5 0.00 0.00 0.00 56 1014.9
20260904052537 79 178 0.9 4.3 0.00 0.00 0.00 58 1014.9
20260904052036 79 196 2.6 6.1 0.00 0.00 0.00 58 1014.9
20260904051536 79 167 2.6 7.0 0.00 0.00 0.00 57 1014.8
20260904051032 79 217 0.9 4.3 0.00 0.00 0.00 56 1014.6
20260904050531 79 179 0.9 2.6 0.00 0.00 0.00 57 1014.7
20260904050037 79 177 0.0 1.7 0.00 0.00 0.00 58 1014.8
20260904045533 78 139 0.0 3.5 0.00 0.00 0.00 58 1014.9
20260904045028 78 139 0.9 5.2 0.00 0.00 0.00 58 1014.8
20260904044527 78 169 2.6 6.1 0.00 0.00 0.00 59 1014.7
20260904044025 77 188 1.7 10.4 0.00 0.00 0.00 60 1014.8
20260904043525 77 188 7.0 10.4 0.00 0.00 0.00 60 1014.7
20260904043037 77 177 1.7 6.1 0.00 0.00 0.00 60 1014.9
20260904042520 77 186 2.6 7.0 0.00 0.00 0.00 60 1014.9
20260904042020 77 170 2.6 7.0 0.00 0.00 0.00 60 1014.9
20260904041518 77 188 3.5 5.2 0.00 0.00 0.00 59 1014.8
20260904041017 77 166 2.6 6.1 0.00 0.00 0.00 59 1014.7
20260904040517 77 161 3.5 5.2 0.00 0.00 0.00 58 1014.7
20260904040021 77 170 3.5 5.2 0.00 0.00 0.00 58 1014.7
20260904035518 77 188 1.7 3.5 0.00 0.00 0.00 57 1014.6
20260904035015 77 192 1.7 3.5 0.00 0.00 0.00 56 1014.5
20260904034520 77 214 0.0 3.5 0.00 0.00 0.00 56 1014.6
20260904034015 77 244 1.7 4.3 0.00 0.00 0.00 56 1014.6
20260904033518 77 257 2.6 4.3 0.00 0.00 0.00 56 1014.6
20260904033022 77 42 0.0 2.6 0.00 0.00 0.00 55 1014.6
20260904032514 77 15 0.0 2.6 0.00 0.00 0.00 55 1014.7
20260904032014 77 351 0.9 4.3 0.00 0.00 0.00 55 1014.6
20260904031514 77 172 1.7 5.2 0.00 0.00 0.00 56 1014.5
20260904031013 77 355 2.6 5.2 0.00 0.00 0.00 56 1014.7
20260904030514 77 157 3.5 5.2 0.00 0.00 0.00 56 1014.4
20260904030013 77 299 0.0 3.5 0.00 0.00 0.00 56 1014.4
20260904025512 77 192 1.7 4.3 0.00 0.00 0.00 55 1014.4
20260904025012 77 194 0.9 5.2 0.00 0.00 0.00 55 1014.4
20260904024512 77 159 2.6 6.1 0.00 0.00 0.00 55 1014.3
20260904024014 77 141 2.6 6.1 0.00 0.00 0.00 55 1014.4
20260904023512 77 136 3.5 6.1 0.00 0.00 0.00 55 1014.4
20260904023011 77 151 3.5 7.0 0.00 0.00 0.00 55 1014.3
20260904022511 77 174 5.2 7.0 0.00 0.00 0.00 55 1014.4
20260904022010 77 123 0.9 7.8 0.00 0.00 0.00 55 1014.4
20260904021515 77 132 4.3 7.8 0.00 0.00 0.00 55 1014.5
20260904021010 77 184 2.6 6.1 0.00 0.00 0.00 54 1014.4
20260904020510 77 171 2.6 4.3 0.00 0.00 0.00 54 1014.4
20260904020009 77 195 2.6 3.5 0.00 0.00 0.00 54 1014.4
20260904015509 77 318 0.0 2.6 0.00 0.00 0.00 55 1014.5
20260904015009 77 323 0.0 2.6 0.00 0.00 0.00 54 1014.5
20260904014509 77 227 0.9 2.6 0.00 0.00 0.00 54 1014.5
20260904014008 77 268 0.0 2.6 0.00 0.00 0.00 54 1014.5
20260904013509 77 269 0.0 3.5 0.00 0.00 0.00 54 1014.5
20260904013008 77 281 0.0 4.3 0.00 0.00 0.00 54 1014.5
20260904012508 77 254 3.5 4.3 0.00 0.00 0.00 54 1014.5
20260904012008 77 241 1.7 3.5 0.00 0.00 0.00 53 1014.5
20260904011508 78 155 0.0 2.6 0.00 0.00 0.00 53 1014.5
20260904011011 78 155 1.7 4.3 0.00 0.00 0.00 53 1014.5
20260904010506 78 161 1.7 5.2 0.00 0.00 0.00 53 1014.4
20260904010009 78 163 3.5 5.2 0.00 0.00 0.00 53 1014.5
20260904005506 78 198 0.0 0.0 0.00 0.00 0.00 53 1014.5
20260904005006 77 292 0.0 0.0 0.00 0.00 0.00 53 1014.5
20260904004506 77 293 0.0 0.0 0.00 0.00 0.00 53 1014.5
20260904004005 77 296 0.0 1.7 0.00 0.00 0.00 53 1014.5
20260904003505 77 296 0.0 1.7 0.00 0.00 0.00 54 1014.3
20260904003004 76 332 0.0 0.9 0.00 0.00 0.00 54 1014.4
20260904002504 76 339 0.0 1.7 0.00 0.00 0.00 55 1014.4
20260904002004 76 340 0.0 1.7 0.00 0.00 0.00 55 1014.4
20260904001503 76 342 0.0 3.5 0.00 0.00 0.00 55 1014.5
20260904001002 76 347 0.0 3.5 0.00 0.00 0.00 54 1014.5
20260904000501 77 77 0.0 0.0 0.00 0.00 0.00 53 1014.6
20260904000002 77 76 0.0 0.0 0.00 0.00 0.00 52 1014.5
20260903235602 77 76 0.0 0.0 0.00 0.00 0.00 52 1014.5
20260903235059 78 88 0.0 3.5 0.00 0.00 0.00 51 1014.6
20260903234559 78 102 0.0 3.5 0.00 0.00 0.00 50 1014.6
20260903234059 78 104 0.9 3.5 0.00 0.00 0.00 49 1014.5
20260903233557 79 116 0.9 3.5 0.00 0.00 0.00 48 1014.5
20260903233102 79 105 1.7 3.5 0.00 0.00 0.00 48 1014.6
20260903232557 78 71 1.7 3.5 0.00 0.00 0.00 48 1014.5
20260903232058 78 121 0.0 2.6 0.00 0.00 0.00 48 1014.5
20260903231557 78 121 0.0 2.6 0.00 0.00 0.00 48 1014.6
20260903231056 78 123 0.0 2.6 0.00 0.00 0.00 48 1014.6
20260903230555 77 77 0.0 2.6 0.00 0.00 0.00 48 1014.6
20260903225555 78 101 0.0 1.7 0.00 0.00 0.00 46 1014.6
20260903225054 78 98 0.0 0.0 0.00 0.00 0.00 46 1014.7
20260903224556 78 97 0.0 0.0 0.00 0.00 0.00 47 1014.7
20260903224054 78 97 0.0 0.9 0.00 0.00 0.00 47 1014.6
20260903223553 77 72 0.0 0.9 0.00 0.00 0.00 48 1014.6
20260903223105 78 73 0.0 2.6 0.00 0.00 0.00 47 1014.7
20260903222550 79 72 0.0 2.6 0.00 0.00 0.00 46 1014.6
20260903222051 79 63 0.0 2.6 0.00 0.00 0.00 46 1014.7
20260903221550 79 49 0.9 2.6 0.00 0.00 0.00 45 1014.8
20260903221050 79 46 0.0 3.5 0.00 0.00 0.00 46 1014.8
20260903220550 79 42 0.0 4.3 0.00 0.00 0.00 46 1014.7
20260903220049 79 74 1.7 3.5 0.00 0.00 0.00 46 1014.8
20260903215549 79 143 0.0 0.9 0.00 0.00 0.00 46 1014.8
20260903215047 79 146 0.0 1.7 0.00 0.00 0.00 46 1014.7
20260903214551 80 148 0.0 2.6 0.00 0.00 0.00 44 1014.7
20260903214046 80 148 0.9 2.6 0.00 0.00 0.00 43 1014.6
20260903213550 80 146 0.0 2.6 0.00 0.00 0.00 43 1014.6
20260903213046 80 146 0.9 3.5 0.00 0.00 0.00 43 1014.6
20260903212544 79 119 0.9 3.5 0.00 0.00 0.00 45 1014.6
20260903212045 80 69 0.0 0.9 0.00 0.00 0.00 45 1014.7
20260903211601 80 69 0.0 0.9 0.00 0.00 0.00 45 1014.7
20260903211043 80 72 0.0 2.6 0.00 0.00 0.00 44 1014.6
20260903210542 79 72 0.0 3.5 0.00 0.00 0.00 45 1014.6
20260903210041 79 65 0.9 4.3 0.00 0.00 0.00 45 1014.6
20260903205540 80 10 1.7 2.6 0.00 0.00 0.00 44 1014.7
20260903205040 81 151 0.0 2.6 0.00 0.00 0.00 44 1014.6
20260903204540 81 150 0.0 2.6 0.00 0.00 0.00 43 1014.6
20260903204041 80 56 0.0 2.6 0.00 0.00 0.00 43 1014.7
20260903203539 80 53 0.0 2.6 0.00 0.00 0.00 43 1014.5
20260903203040 81 351 0.0 1.7 0.00 0.00 0.00 43 1014.7
20260903202542 81 342 0.0 1.7 0.00 0.00 0.00 43 1014.6
20260903202039 81 299 0.0 0.9 0.00 0.00 0.00 43 1014.7
20260903201539 81 301 0.0 0.9 0.00 0.00 0.00 43 1014.7
20260903201038 81 301 0.0 0.9 0.00 0.00 0.00 44 1014.7
20260903200539 81 302 0.0 1.7 0.00 0.00 0.00 44 1014.8
20260903200040 81 308 0.0 3.5 0.00 0.00 0.00 44 1014.8
20260903195538 80 311 0.9 3.5 0.00 0.00 0.00 44 1014.7
20260903195038 81 355 1.7 5.2 0.00 0.00 0.00 43 1014.6
20260903194539 81 13 1.7 7.0 0.00 0.00 0.00 43 1014.5
20260903194037 81 52 3.5 8.7 0.00 0.00 0.00 43 1014.6
20260903193537 81 86 3.5 9.6 0.00 0.00 0.00 43 1014.6
20260903193037 81 90 3.5 9.6 0.00 0.00 0.00 43 1014.5
20260903192537 81 69 5.2 9.6 0.00 0.00 0.00 43 1014.5
20260903192036 81 71 2.6 8.7 0.00 0.00 0.00 43 1014.5
20260903191536 81 87 3.5 12.2 0.00 0.00 0.00 43 1014.5
20260903191040 82 65 5.2 10.4 0.00 0.00 0.00 43 1014.5
20260903190536 82 59 4.3 9.6 0.00 0.00 0.00 43 1014.5
20260903190035 82 55 5.2 11.3 0.00 0.00 0.00 43 1014.5
20260903185536 82 76 1.7 10.4 0.00 0.00 0.00 43 1014.4
20260903185036 82 103 5.2 10.4 0.00 0.00 0.00 43 1014.3
20260903184540 82 74 5.2 9.6 0.00 0.00 0.00 43 1014.3
20260903184035 82 86 4.3 10.4 0.00 0.00 0.00 43 1014.2
20260903183534 82 78 5.2 11.3 0.00 0.00 0.00 43 1014.2
20260903183035 83 80 5.2 12.2 0.00 0.00 0.00 43 1014.1
20260903182535 83 101 5.2 12.2 0.00 0.00 0.00 43 1014.1
20260903182035 83 98 7.0 11.3 0.00 0.00 0.00 43 1014.1
20260903181534 83 105 7.0 11.3 0.00 0.00 0.00 43 1014.0
20260903181036 83 88 7.8 13.0 0.00 0.00 0.00 43 1014.1
20260903180535 83 59 8.7 13.0 0.00 0.00 0.00 43 1014.0
20260903180037 83 80 7.0 11.3 0.00 0.00 0.00 43 1014.0
20260903175533 83 69 6.1 11.3 0.00 0.00 0.00 43 1014.1
20260903175033 83 128 7.0 11.3 0.00 0.00 0.00 43 1014.0
20260903174537 83 57 6.1 11.3 0.00 0.00 0.00 43 1014.0
20260903174033 83 78 7.0 11.3 0.00 0.00 0.00 43 1013.9
20260903173537 83 86 6.1 11.3 0.00 0.00 0.00 43 1013.8
20260903173037 83 86 5.2 11.3 0.00 0.00 0.00 43 1013.9
20260903172532 83 56 5.2 12.2 0.00 0.00 0.00 43 1013.9
20260903172034 84 59 4.3 12.2 0.00 0.00 0.00 43 1013.9
20260903171535 84 49 7.0 11.3 0.00 0.00 0.00 43 1013.8
20260903171033 84 82 5.2 13.0 0.00 0.00 0.00 43 1013.8
20260903170531 84 46 6.1 13.9 0.00 0.00 0.00 43 1013.8
20260903170033 84 58 6.1 13.0 0.00 0.00 0.00 43 1013.7
20260903165530 84 50 7.0 13.0 0.00 0.00 0.00 43 1013.6
20260903165032 84 61 7.0 13.9 0.00 0.00 0.00 43 1013.6
20260903164530 85 25 7.8 15.6 0.00 0.00 0.00 43 1013.6
20260903164032 85 53 7.8 15.6 0.00 0.00 0.00 42 1013.5
20260903163531 85 101 7.0 14.8 0.00 0.00 0.00 42 1013.5
20260903163030 85 26 6.1 20.0 0.00 0.00 0.00 42 1013.4
20260903162529 85 49 10.4 20.0 0.00 0.00 0.00 42 1013.3
20260903162029 85 59 7.0 19.1 0.00 0.00 0.00 42 1013.3
20260903161529 85 47 8.7 19.1 0.00 0.00 0.00 42 1013.3
20260903161028 86 62 11.3 22.6 0.00 0.00 0.00 42 1013.3
20260903160528 86 19 10.4 22.6 0.00 0.00 0.00 41 1013.2
20260903160027 86 45 11.3 23.5 0.00 0.00 0.00 41 1013.2
20260903155527 87 52 7.8 19.1 0.00 0.00 0.00 41 1013.2
20260903155027 87 28 8.7 19.1 0.00 0.00 0.00 41 1013.1
20260903154527 87 84 9.6 21.7 0.00 0.00 0.00 41 1013.2
20260903154025 87 49 13.9 21.7 0.00 0.00 0.00 41 1013.1
20260903153527 87 63 11.3 20.0 0.00 0.00 0.00 41 1013.0
20260903153025 87 51 8.7 20.9 0.00 0.00 0.00 40 1013.1
20260903152525 87 81 10.4 20.9 0.00 0.00 0.00 40 1013.1
20260903152025 87 76 7.8 20.9 0.00 0.00 0.00 42 1013.2
20260903151529 87 53 7.8 19.1 0.00 0.00 0.00 42 1013.2
20260903151025 87 72 9.6 20.9 0.00 0.00 0.00 43 1013.2
20260903150525 87 49 12.2 20.9 0.00 0.00 0.00 42 1013.3
20260903150024 87 71 11.3 20.9 0.00 0.00 0.00 43 1013.2
20260903145524 87 86 12.2 20.9 0.00 0.00 0.00 43 1013.3
20260903145022 87 81 9.6 20.0 0.00 0.00 0.00 44 1013.3
20260903144522 87 90 10.4 23.5 0.00 0.00 0.00 43 1013.3
20260903144023 87 94 10.4 23.5 0.00 0.00 0.00 44 1013.1
20260903143520 88 23 10.4 19.1 0.00 0.00 0.00 45 1013.1
20260903143020 88 74 9.6 18.2 0.00 0.00 0.00 45 1013.2
20260903142520 89 74 10.4 17.4 0.00 0.00 0.00 43 1013.2
20260903142018 89 38 8.7 19.1 0.00 0.00 0.00 43 1013.2
20260903141518 89 50 11.3 18.2 0.00 0.00 0.00 43 1013.1
20260903141017 90 47 13.9 17.4 0.00 0.00 0.00 42 1013.2
20260903140516 90 61 6.1 19.1 0.00 0.00 0.00 42 1013.2
20260903140030 90 71 9.6 19.1 0.00 0.00 0.00 42 1013.0
20260903135514 90 43 11.3 19.1 0.00 0.00 0.00 42 1013.0
20260903135013 90 24 10.4 19.1 0.00 0.00 0.00 41 1012.8
20260903134518 91 88 11.3 19.1 0.00 0.00 0.00 41 1012.8
20260903134017 91 101 10.4 19.1 0.00 0.00 0.00 41 1012.7
20260903133512 91 59 7.8 18.2 0.00 0.00 0.00 41 1012.7
20260903133012 91 88 9.6 18.2 0.00 0.00 0.00 40 1012.7
20260903132512 90 48 9.6 18.2 0.00 0.00 0.00 41 1012.9
20260903132015 90 99 10.4 18.2 0.00 0.00 0.00 40 1012.9
20260903131512 91 66 8.7 18.2 0.00 0.00 0.00 40 1012.9
20260903131011 91 80 9.6 18.2 0.00 0.00 0.00 40 1012.8
20260903130514 90 60 10.4 16.5 0.00 0.00 0.00 40 1012.9
20260903130130 91 48 9.6 16.5 0.00 0.00 0.00 39 1013.0
20260903125509 90 112 7.8 22.6 0.00 0.00 0.00 41 1013.2
20260903125009 90 69 14.8 22.6 0.00 0.00 0.00 40 1013.3
20260903124509 91 90 8.7 18.2 0.00 0.00 0.00 40 1013.2
20260903124008 91 88 7.8 17.4 0.00 0.00 0.00 40 1013.1
20260903123508 91 23 9.6 19.1 0.00 0.00 0.00 39 1013.2
20260903123014 91 94 7.8 19.1 0.00 0.00 0.00 40 1013.2
20260903122508 91 101 10.4 18.2 0.00 0.00 0.00 40 1013.2
20260903122008 91 79 11.3 20.9 0.00 0.00 0.00 41 1013.2
20260903121508 90 59 11.3 20.0 0.00 0.00 0.00 41 1013.2
20260903121009 90 71 9.6 18.2 0.00 0.00 0.00 41 1013.2
20260903120506 91 90 12.2 20.0 0.00 0.00 0.00 41 1013.2
20260903120006 91 74 14.8 20.0 0.00 0.00 0.00 40 1013.2
20260903115505 91 13 10.4 19.1 0.00 0.00 0.00 41 1013.3
20260903115005 91 80 12.2 19.1 0.00 0.00 0.00 41 1013.3
20260903114508 90 61 11.3 18.2 0.00 0.00 0.00 42 1013.4
20260903114005 91 69 8.7 19.1 0.00 0.00 0.00 42 1013.4
20260903113504 91 97 9.6 20.0 0.00 0.00 0.00 42 1013.4
20260903113004 90 119 10.4 18.2 0.00 0.00 0.00 42 1013.3
20260903112504 90 86 10.4 17.4 0.00 0.00 0.00 42 1013.4
20260903112004 90 92 9.6 17.4 0.00 0.00 0.00 42 1013.4
20260903111504 90 119 8.7 20.0 0.00 0.00 0.00 43 1013.5
20260903111003 90 22 8.7 20.0 0.00 0.00 0.00 43 1013.4
20260903110503 90 98 8.7 20.0 0.00 0.00 0.00 43 1013.5
20260903110002 90 93 11.3 20.0 0.00 0.00 0.00 43 1013.5
20260903105502 91 80 4.3 15.6 0.00 0.00 0.00 43 1013.5
20260903105102 90 42 9.6 16.5 0.00 0.00 0.00 43 1013.5
20260903104500 90 117 6.1 21.7 0.00 0.00 0.00 44 1013.7
20260903104102 90 86 9.6 21.7 0.00 0.00 0.00 44 1013.6
20260903103602 90 109 8.7 20.9 0.00 0.00 0.00 43 1013.6
20260903103100 90 121 9.6 20.9 0.00 0.00 0.00 43 1013.6
20260903102558 91 83 7.0 14.8 0.00 0.00 0.00 43 1013.6
20260903102059 91 84 7.0 18.2 0.00 0.00 0.00 43 1013.7
20260903101602 91 81 11.3 18.2 0.00 0.00 0.00 42 1013.7
20260903101057 91 40 9.6 14.8 0.00 0.00 0.00 41 1013.7
20260903100556 92 105 5.2 11.3 0.00 0.00 0.00 41 1013.7
20260903100055 91 74 4.3 13.0 0.00 0.00 0.00 42 1013.7